User: anonymous   Login
Location: Cran-Gévrier
(45.9039°N, 6.1012°E)
Time: 18:38:40
(UTC+00:00)
Language:

Cosmos 1386 Rocket - Orbit

View from above orbital plane
View from above orbital plane
View from above satellite
View from above satellite

Ground track
Ground track

The orbit data is extracted from the following two-line orbital elements,

1 13354U 82069B   24104.89447499  .00000050  00000-0  33986-4 0  9994
2 13354  82.9554 286.6957 0051138 329.7007  30.1197 13.79090143100920
Epoch (UTC): 13 April 2024 21:28:02
Eccentricity: 0.0051138
inclination: 82.9554°
perigee height: 929 km
apogee height: 1004 km
right ascension of ascending node: 286.6957°
argument of perigee: 329.7007°
revolutions per day: 13.79090143
mean anomaly at epoch: 30.1197°
orbit number at epoch: 10092

The dashed part of the orbit path shows where the satellite is in the earth's shadow,  

DLR